Weather Roundup
Issued by NWS Chicago, IL

Home | Current Version | Previous Version | Graphics & Text | Print | Product List | Glossary On
Versions: 1 2 3 4 5 6 7 8 9 10 11 12 13 14 15 16 17 18 19 20 21 22 23 24 25 26 27 28 29 30 31 32 33 34 35 36 37 38 39 40 41 42 43 44 45 46 47 48 49 50
000
NZUS59 KLOT 261308
HRRLOT

CHICAGO AREA WEATHER ROUNDUP
NATIONAL WEATHER SERVICE CHICAGO/ROMEOVILLE IL
800 AM CDT THU MAY 26 2016

NOTE: "FAIR" INDICATES FEW OR NO CLOUDS BELOW 12,000 FEET WITH NO
SIGNIFICANT WEATHER AND/OR OBSTRUCTIONS TO VISIBILITY.

* THESE STATIONS ARE NOT UNDER NWS QUALITY CONTROL. THEY ALSO MAY NOT
  REPORT WEATHER SUCH AS PRECIPITATION OR FOG.

ILZ005-006-012>014-019>023-261400-
NORTHEAST ILLINOIS

CITY           SKY/WX    TMP DP  RH WIND       PRES   REMARKS
OHARE          CLOUDY    70  66  87 SW10      29.92S
MIDWAY         CLOUDY    72  65  78 SW12G17   29.93S
AURORA         CLOUDY    71  67  87 SW12      29.94R
LANSING*       PTSUNNY   71  66  84 S8        29.94F
JOLIET*        CLOUDY    73  68  86 SW7       29.96R
WAUKEGAN       PTSUNNY   70  67  90 SW10      29.90S
DUPAGE AIRPORT CLOUDY    70  65  84 S12       29.92S
WHEELING       PTSUNNY   71  66  84 S8        29.93S
KANKAKEE*      CLOUDY   N/A N/A N/A SW14      29.97R
MORRIS*        CLOUDY    71  65  82 SW13G18   29.94R
LEWIS AIRPORT* CLOUDY    71  65  82 SW12      29.95R
$$

WIZ051-052-058>065-066-070>072-261400-
SOUTHEAST WISCONSIN

CITY           SKY/WX    TMP DP  RH WIND       PRES   REMARKS
MILWAUKEE      PTSUNNY   70  66  87 S10       29.88F
KENOSHA*       CLOUDY    70  66  87 SW9       29.90S
RACINE*        PTSUNNY   69  64  84 S8        29.91F
BURLINGTON     PTSUNNY   68  66  92 S7        29.89S
WAUKESHA       MOSUNNY   68  64  88 S9        29.89S FOG
WEST BEND      MOSUNNY   68  66  94 CALM      29.87S
$$

INZ001>003-010>013-019-020-261400-
NORTHWEST INDIANA

CITY           SKY/WX    TMP DP  RH WIND       PRES   REMARKS
GARY*          PTSUNNY   73  73 100 S9        29.94F
MICHIGAN CITY* NOT AVBL
RENSSELAER*    NOT AVBL
VALPARAISO     PTSUNNY   71  66  84 S10       29.97S
$$

LMZ740>746-261400-
SOUTHERN LAKE MICHIGAN

STATION/POSITION TIME  SKY/WX   TEMP WIND        PRES    VSBY
                                AIR  DIR/SP/G
                 (UTC)          (F)  (DEG/KT/KT) (MB)    (MI)
HARRISON CRIB    1200            69  200/ 12/ 13   N/A
BURNHAM HARBOR   1300            71  200/  6/ 11   N/A
CALUMET HARBOR   1200            69  200/ 10/ 14 1013.1S
BURNS HARBOR     1200            69  180/  9/ 17 1014.6R
MICHIGAN CITY    1200            68  160/ 12/ 14   N/A
$$

ABBREVIATIONS USED IN REMARKS
   TC - TEMPERATURE IN CELSIUS
  WCI - WIND CHILL INDEX
   HX - HEAT INDEX
  VSB - VISIBILITY
$$



USA.gov is the U.S. government's official web portal to all federal, state and local government web resources and services.